Flag for Germany Weather past 2 weeks in Burgdorf, Lower Saxony, Germany

Now
45 °F

Scattered clouds.


Feels Like: 36 °F
Forecast: 38 / 44 °F
Wind: 22 mph from West

Location: Celle Airport

Current Time: Mar 31, 2015 at 8:12:23 PM

Latest Report: Mar 31, 2015 at 7:20 PM


Visibility: N/A

Pressure: 29.45 "Hg

Humidity: 57%

Dew point: 30 °F

Location of BurgdorfLocation

Historic Weather in Burgdorf — Graph

°F

Burgdorf temperature yesterday

Maximum temperature yesterday: 48 °F (at 2:20 PM)
Minimum temperature yesterday: 39 °F (at 6:49 AM)
Average temperature yesterday: 42 °F

Past Weeks' High & Low Weather Summary

 TemperatureHumidityPressure
High61 °F (Mar 25, 3:20 PM)100% (Mar 20, 11:20 PM)30.42 "Hg (Mar 20, 11:20 PM)
Low27 °F (Mar 20, 5:20 AM)31% (Mar 19, 3:20 PM)29.03 "Hg (Mar 29, 10:20 PM)
Average43 °F74%29.91 "Hg
* Reported Mar 16 5:20 PM — Mar 31 6:20 PM, Burgdorf, Weather by CustomWeather, © 2015

Note: Actual official high and low records may vary slightly from our data, if they occured in-between our weather recording intervals... More about our weather records

Advertising

Burgdorf weather history for previous 24 hours

 ConditionsComfort  
Time TempWeatherWind HumidityBarometerVisibility
6:20 PM
Tue, Mar 31
46 °FScattered clouds.26 mph53%29.42 "HgN/A
5:20 PM45 °FPartly sunny.30 mph71%29.33 "HgN/A
4:20 PM45 °FSprinkles. Broken clouds.25 mph81%29.30 "HgN/A
3:20 PM46 °FSprinkles. Partly sunny.28 mph76%29.24 "HgN/A
2:20 PM48 °FPartly sunny.32 mph62%29.18 "HgN/A
2:04 PM48 °FSprinkles. Broken clouds.30 mph62%29.18 "HgN/A
1:20 PM48 °FPartly sunny.30 mph71%29.15 "Hg5 mi
12:50 PM48 °FPartly sunny.30 mph71%29.15 "Hg5 mi
12:20 PM50 °FSprinkles. Partly sunny.29 mph67%29.12 "HgN/A
11:20 AM48 °FSprinkles. Broken clouds.25 mph71%29.12 "Hg5 mi
10:56 AM50 °FSprinkles. Scattered clouds.28 mph71%29.09 "Hg5 mi
10:20 AM50 °FSprinkles. Broken clouds.20 mph71%29.09 "HgN/A
9:20 AM48 °FBroken clouds.18 mph82%29.06 "HgN/A
8:20 AM45 °FLight rain. Partly sunny.17 mph93%29.03 "HgN/A
8:02 AM43 °FLight rain. Broken clouds.14 mph93%29.03 "HgN/A
7:20 AM39 °FPartly cloudy.12 mph93%29.06 "Hg5 mi
6:20 AM36 °FLight rain. Fog.13 mph100%29.12 "Hg3 mi
5:20 AM34 °FLight rain. Fog.17 mph100%29.21 "Hg3 mi
4:20 AM36 °FLight rain. Passing clouds.13 mph93%29.36 "Hg5 mi
3:20 AM39 °FLight rain. Passing clouds.14 mph81%29.45 "Hg5 mi
2:20 AM41 °FPassing clouds.9 mph66%29.53 "HgN/A
1:20 AM39 °FPartly cloudy.7 mph70%29.59 "HgN/A
12:20 AM41 °FPartly cloudy.10 mph66%29.65 "HgN/A
11:20 PM
Mon, Mar 30
41 °FPassing clouds.13 mph66%29.68 "HgN/A
10:20 PM41 °FPassing clouds.12 mph66%29.71 "HgN/A
9:20 PM41 °FPassing clouds.8 mph66%29.71 "HgN/A
8:20 PM43 °FPassing clouds.14 mph57%29.71 "HgN/A
Weather by CustomWeather, © 2015

See weather overviewHow to use our weather pages